• In United Kingdom
  • List of Countries
  • For 7 days
  • Water Temperature
  • Satellite Maps
  • Weather Map
  • Weather Widgets
  • user-avatar
    Login

    Hourly Weather Katerini

    Today, 23 November, Thursday

    Time Temperature Precipitation Wind Pressure Humidity
    00:00 +12°C° 0 mm 1 mps 761 mmHg 59%
    01:00 +12°C° 0 mm 1 mps 761 mmHg 61%
    02:00 +11°C° 0 mm 1 mps 761 mmHg 62%
    03:00 +11°C° 0 mm 1 mps 761 mmHg 63%
    04:00 +10°C° 0 mm 2 mps 761 mmHg 64%
    05:00 +10°C° 0 mm 2 mps 761 mmHg 65%
    06:00 +10°C° 0 mm 2 mps 761 mmHg 66%
    07:00 +11°C° 0 mm 1 mps 762 mmHg 66%
    08:00 +10°C° 0 mm 2 mps 762 mmHg 66%
    09:00 +13°C° 0 mm 2 mps 762 mmHg 61%
    10:00 +15°C° 0 mm 1 mps 762 mmHg 56%
    11:00 +16°C° 0 mm 1 mps 762 mmHg 51%
    12:00 +18°C° 0 mm 1 mps 761 mmHg 49%
    13:00 +19°C° 0 mm 1 mps 761 mmHg 47%
    14:00 +19°C° 0 mm 1 mps 761 mmHg 47%
    15:00 +18°C° 0 mm 1 mps 761 mmHg 51%
    16:00 +15°C° 0 mm 0 mps 761 mmHg 55%
    17:00 +14°C° 0 mm 0 mps 761 mmHg 60%
    18:00 +14°C° 0 mm 0 mps 761 mmHg 61%
    19:00 +13°C° 0 mm 0 mps 762 mmHg 62%
    20:00 +13°C° 0 mm 0 mps 762 mmHg 64%
    21:00 +12°C° 0 mm 0 mps 762 mmHg 65%
    22:00 +12°C° 0 mm 0 mps 762 mmHg 65%
    23:00 +12°C° 0 mm 0 mps 762 mmHg 66%

    Tomorrow, 24 November, Friday

    Time Temperature Precipitation Wind Pressure Humidity
    00:00 +13°C° 0 mm 1 mps 762 mmHg 67%
    01:00 +12°C° 0 mm 1 mps 762 mmHg 67%
    02:00 +12°C° 0 mm 1 mps 762 mmHg 68%
    03:00 +12°C° 0 mm 1 mps 762 mmHg 69%
    04:00 +12°C° 0 mm 1 mps 762 mmHg 69%
    05:00 +12°C° 0 mm 1 mps 762 mmHg 70%
    06:00 +11°C° 0 mm 1 mps 762 mmHg 71%
    07:00 +11°C° 0 mm 1 mps 762 mmHg 71%
    08:00 +11°C° 0 mm 1 mps 762 mmHg 72%
    09:00 +13°C° 0 mm 1 mps 762 mmHg 66%
    10:00 +14°C° 0 mm 1 mps 762 mmHg 61%
    11:00 +16°C° 0 mm 1 mps 762 mmHg 56%
    12:00 +16°C° 0 mm 1 mps 762 mmHg 54%
    13:00 +18°C° 0 mm 1 mps 761 mmHg 53%
    14:00 +19°C° 0 mm 1 mps 761 mmHg 52%
    15:00 +18°C° 0 mm 1 mps 761 mmHg 56%
    16:00 +16°C° 0 mm 1 mps 761 mmHg 61%
    17:00 +15°C° 0 mm 1 mps 761 mmHg 66%
    18:00 +14°C° 0 mm 1 mps 762 mmHg 69%
    19:00 +14°C° 0 mm 1 mps 762 mmHg 72%
    20:00 +12°C° 0 mm 0 mps 762 mmHg 75%
    21:00 +12°C° 0 mm 0 mps 762 mmHg 76%
    22:00 +12°C° 0 mm 0 mps 762 mmHg 77%
    23:00 +11°C° 0 mm 0 mps 763 mmHg 79%

    Day after tomorrow, 25 November, Saturday

    Time Temperature Precipitation Wind Pressure Humidity
    00:00 +12°C° 0 mm 1 mps 763 mmHg 80%
    01:00 +12°C° 0 mm 1 mps 763 mmHg 80%
    02:00 +12°C° 0 mm 1 mps 763 mmHg 81%
    03:00 +12°C° 0 mm 1 mps 763 mmHg 82%
    04:00 +11°C° 0 mm 1 mps 762 mmHg 83%
    05:00 +11°C° 0 mm 1 mps 762 mmHg 84%
    06:00 +11°C° 0 mm 1 mps 762 mmHg 84%
    07:00 +11°C° 0 mm 1 mps 762 mmHg 84%
    08:00 +11°C° 0 mm 1 mps 763 mmHg 84%
    09:00 +12°C° 0 mm 1 mps 763 mmHg 80%
    10:00 +14°C° 0 mm 1 mps 762 mmHg 75%
    11:00 +15°C° 0 mm 1 mps 762 mmHg 71%
    12:00 +15°C° 0 mm 1 mps 762 mmHg 70%
    13:00 +16°C° 0 mm 1 mps 761 mmHg 68%
    14:00 +16°C° 0 mm 1 mps 761 mmHg 67%
    15:00 +16°C° 0 mm 1 mps 761 mmHg 71%
    16:00 +15°C° 0 mm 1 mps 760 mmHg 75%
    17:00 +14°C° 0 mm 1 mps 760 mmHg 79%
    18:00 +14°C° 0 mm 1 mps 761 mmHg 82%
    19:00 +13°C° 0 mm 1 mps 761 mmHg 85%
    20:00 +13°C° 0 mm 1 mps 761 mmHg 88%
    21:00 +13°C° 0 mm 1 mps 761 mmHg 88%
    22:00 +13°C° 0 mm 1 mps 761 mmHg 89%
    23:00 +12°C° 0 mm 1 mps 761 mmHg 89%

    26 November, Sunday

    Time Temperature Precipitation Wind Pressure Humidity
    00:00 +12°C° 0 mm 1 mps 761 mmHg 89%
    01:00 +12°C° 0 mm 1 mps 761 mmHg 89%
    02:00 +12°C° 0 mm 1 mps 761 mmHg 89%
    03:00 +12°C° 0 mm 1 mps 761 mmHg 89%
    04:00 +11°C° 0 mm 1 mps 760 mmHg 89%
    05:00 +11°C° 0 mm 1 mps 760 mmHg 88%
    06:00 +11°C° 0 mm 1 mps 760 mmHg 87%
    07:00 +11°C° 0 mm 1 mps 760 mmHg 86%
    08:00 +11°C° 0 mm 1 mps 760 mmHg 84%
    09:00 +12°C° 0 mm 1 mps 760 mmHg 78%
    10:00 +14°C° 0 mm 1 mps 760 mmHg 72%
    11:00 +15°C° 0 mm 1 mps 760 mmHg 66%
    12:00 +16°C° 0 mm 1 mps 759 mmHg 62%
    13:00 +16°C° 0 mm 1 mps 759 mmHg 59%
    14:00 +18°C° 0 mm 1 mps 758 mmHg 56%
    15:00 +16°C° 0 mm 1 mps 758 mmHg 60%
    16:00 +16°C° 0 mm 1 mps 758 mmHg 64%
    17:00 +15°C° 0 mm 1 mps 758 mmHg 68%
    18:00 +14°C° 0 mm 1 mps 758 mmHg 69%
    19:00 +14°C° 0 mm 1 mps 757 mmHg 70%
    20:00 +14°C° 0 mm 1 mps 757 mmHg 72%
    21:00 +13°C° 0 mm 1 mps 757 mmHg 72%
    22:00 +13°C° 0 mm 1 mps 757 mmHg 73%
    23:00 +13°C° 0 mm 1 mps 757 mmHg 74%

    27 November, Monday

    Time Temperature Precipitation Wind Pressure Humidity
    00:00 +13°C° 0.6 mm 1 mps 756 mmHg 77%
    01:00 +13°C° 0.6 mm 1 mps 756 mmHg 81%
    02:00 +13°C° 0.6 mm 1 mps 756 mmHg 84%
    03:00 +13°C° 1.2 mm 1 mps 755 mmHg 86%
    04:00 +12°C° 1.2 mm 1 mps 755 mmHg 89%
    05:00 +12°C° 1.2 mm 1 mps 754 mmHg 91%
    06:00 +12°C° 1.1 mm 2 mps 754 mmHg 92%
    07:00 +12°C° 1.1 mm 2 mps 754 mmHg 92%
    08:00 +12°C° 1.1 mm 2 mps 754 mmHg 93%
    09:00 +11°C° 1.9 mm 3 mps 754 mmHg 91%
    10:00 +11°C° 1.9 mm 4 mps 754 mmHg 90%
    11:00 +10°C° 1.9 mm 5 mps 754 mmHg 88%
    12:00 +10°C° 0.7 mm 5 mps 754 mmHg 84%
    13:00 +10°C° 0.7 mm 5 mps 754 mmHg 80%
    14:00 +10°C° 0.7 mm 5 mps 753 mmHg 76%
    15:00 +10°C° 0.2 mm 6 mps 753 mmHg 75%
    16:00 +9°C° 0.2 mm 6 mps 754 mmHg 74%
    17:00 +9°C° 0.2 mm 6 mps 754 mmHg 73%
    18:00 +8°C° 0.1 mm 6 mps 754 mmHg 73%
    19:00 +8°C° 0.1 mm 6 mps 755 mmHg 73%
    20:00 +7°C° 0.1 mm 6 mps 755 mmHg 73%
    21:00 +7°C° 0.1 mm 6 mps 755 mmHg 73%
    22:00 +7°C° 0.1 mm 6 mps 756 mmHg 73%
    23:00 +5°C° 0.1 mm 6 mps 756 mmHg 73%

    28 November, Tuesday

    Time Temperature Precipitation Wind Pressure Humidity
    00:00 +5°C° 0 mm 6 mps 756 mmHg 73%
    01:00 +6°C° 0 mm 5 mps 756 mmHg 73%
    02:00 +5°C° 0 mm 5 mps 756 mmHg 73%
    03:00 +5°C° 0 mm 5 mps 756 mmHg 73%
    04:00 +5°C° 0 mm 5 mps 756 mmHg 73%
    05:00 +3°C° 0 mm 5 mps 756 mmHg 73%
    06:00 +3°C° 0 mm 5 mps 757 mmHg 73%
    07:00 +4°C° 0 mm 4 mps 757 mmHg 73%
    08:00 +4°C° 0 mm 4 mps 757 mmHg 72%
    09:00 +5°C° 0 mm 4 mps 757 mmHg 67%
    10:00 +6°C° 0 mm 4 mps 758 mmHg 63%
    11:00 +8°C° 0 mm 4 mps 758 mmHg 58%
    12:00 +8°C° 0 mm 4 mps 757 mmHg 56%
    13:00 +10°C° 0 mm 4 mps 757 mmHg 55%
    14:00 +11°C° 0 mm 4 mps 756 mmHg 53%
    15:00 +10°C° 0 mm 4 mps 757 mmHg 57%
    16:00 +9°C° 0 mm 3 mps 757 mmHg 60%
    17:00 +8°C° 0 mm 3 mps 757 mmHg 63%
    18:00 +8°C° 0 mm 3 mps 758 mmHg 65%
    19:00 +7°C° 0 mm 3 mps 758 mmHg 67%
    20:00 +7°C° 0 mm 3 mps 759 mmHg 68%
    21:00 +7°C° 0 mm 3 mps 759 mmHg 69%
    22:00 +5°C° 0 mm 3 mps 759 mmHg 69%
    23:00 +5°C° 0 mm 3 mps 759 mmHg 69%
    Show more